Regional Weather Roundup
Issued by NWS

Home | Current Version | Previous Version | Text Only | Print | Product List | Glossary Off
Versions: 1 2 3 4 5 6 7 8 9 10 11 12 13 14 15 16 17 18 19 20 21 22 23 24 25 26 27 28 29 30 31 32 33 34 35 36 37 38 39 40 41 42 43 44 45 46 47 48 49

000
ASUS45 KCYS 280210
RWRWY

WYOMING REGIONAL WEATHER ROUNDUP
NATIONAL WEATHER SERVICE CHEYENNE WY
700 PM MST THU NOV 27 2014

NOTE:  "FAIR" INDICATES FEW OR NO CLOUDS BELOW 12,000 FEET
WITH NO SIGNIFICANT WEATHER AND/OR OBSTRUCTIONS TO VISIBILITY.

WYZ001-280300-
YELLOWSTONE NATIONAL PARK

CITY           SKY/WX    TMP DP  RH WIND       PRES   REMARKS
LK YELLOWSTONE   N/A     33  29  85 CALM      30.14F
W YELLOWSTONE  NOT AVBL

$$
WYZ002>013-054>058-071-098>099-280300-
NORTHERN WYOMING

CITY           SKY/WX    TMP DP  RH WIND       PRES   REMARKS
JACKSON        NOT AVBL
CODY           MOCLDY    54  28  37 SW10G25   29.94F
GREYBULL       CLOUDY    26  23  88 CALM      29.96F
WORLAND        MOCLDY    30  27  88 SW6       29.96S WCI  24
SHERIDAN       MOCLDY    49  26  41 VRB6      29.85F
BUFFALO        MOCLDY    42  25  50 NE3       29.90F
GILLETTE       CLEAR     45  29  53 SW10      29.91S
HULETT           N/A    N/A N/A N/A MISG        N/A
NEWCASTLE      FAIR      34  28  80 CALM      29.95S

$$
WYZ014>020-022>026-101>103-280300-
CENTRAL WYOMING

CITY           SKY/WX    TMP DP  RH WIND       PRES   REMARKS
BIG PINEY      PTCLDY   N/A N/A N/A CALM      30.20F
PINEDALE       PTCLDY    27  25  93 NW3       30.21F
DUBOIS         FAIR      37  25  60 W18G24    30.10F WCI  27
LANDER         PTCLDY    50  23  34 SW10      30.01F
RIVERTON       CLEAR     45  26  47 CALM      30.04F
CASPER         PTCLDY    45  26  47 SW13      30.05S
DOUGLAS        PTCLDY    46  26  45 NW7       30.02R

$$
WYZ021-027>030-104>119-280300-
SOUTHERN WYOMING

CITY           SKY/WX    TMP DP  RH WIND       PRES   REMARKS
EVANSTON       MOCLDY    42  21  43 SW10      30.25F
FORT BRIDGER   FAIR      44  24  45 SW14      30.25
ROCK SPRINGS   PTCLDY    42  21  43 W12       30.19F
DIXON          FAIR      44  22  41 SW5       30.26S
RAWLINS        CLEAR     42  21  43 W23       30.18F
SARATOGA       FAIR      36  21  55 S10       30.23F WCI  28
LARAMIE        PTCLDY    39  21  48 W12       30.19F WCI  32
CHEYENNE       CLEAR     48  22  35 W22       30.09F
TORRINGTON     CLEAR     50  26  39 W15       29.98F
PINE BLUFFS    FAIR      46  25  42 W17G23    30.04F

$$


USA.gov is the U.S. government's official web portal to all federal, state and local government web resources and services.